Regional Weather Roundup
Issued by NWS Grand Forks, ND

Home | Current Version | Previous Version | Graphics & Text | Print | Product List | Glossary On
Versions: 1 2 3 4 5 6 7 8 9 10 11 12 13 14 15 16 17 18 19 20 21 22 23 24 25 26 27 28 29 30 31 32 33 34 35 36 37 38 39 40 41 42 43 44 45 46 47 48 49 50
320
ASUS43 KFGF 120410
RWRFGF
PRAIRIE TO PINES  WEATHER ROUNDUP
NATIONAL WEATHER SERVICE EASTERN NORTH DAKOTA/GRAND FORKS ND
1000 PM CST MON DEC 11 2017

 **SATELLITE DATA USED TO AUGMENT SKY COVER AT AUTOMATED STATIONS**
 *****  WEATHER ACROSS EASTERN NORTH DAKOTA  *****

CITY           SKY/WX    TMP DP  RH WIND       PRES   REMARKS
GRAND FORKS    MOCLDY     5   3  91 W3        30.33F
GRAND FRKS AFB FAIR       6   2  84 CALM      30.32F
GRAND FRKS NWS   N/A      7 N/A N/A NW2         N/A
DEVILS LAKE    FAIR      14  11  87 W6        30.28F WCI   5
FARGO          FAIR       6   3  87 W5        30.35F WCI  -3
WAHPETON ARPT    N/A     12   5  73 N9        30.35F WCI   0
$$

 ***** WEATHER ACROSS CENTRAL AND WESTERN NORTH DAKOTA  *****

CITY           SKY/WX    TMP DP  RH WIND       PRES   REMARKS
BISMARCK       FAIR      21  18  88 SW3       30.32F
MINOT          CLOUDY    27  23  85 SW5       30.27F WCI  22
JAMESTOWN      FAIR      13  11  92 W3        30.30F
MINOT AFB      CLOUDY    26  23  88 W6        30.26F WCI  20
GARRISON         N/A     24  22  91 NW6       30.29F WCI  17
WILLISTON        N/A    N/A N/A N/A MISG      30.31F
DICKINSON      CLOUDY    31  28  89 W8        30.30F WCI  23
HETTINGER      CLOUDY    34  24  67 W9        30.34F
$$

 *****  OTHER AIRPORT OBSERVATIONS IN OUR AREA  *****

CITY           SKY/WX    TMP DP  RH WIND       PRES   REMARKS
WALHALLA       FAIR       9   9 100 CALM      30.30F
GRAFTON AIRPOR FAIR      10   7  85 W5        30.34F WCI   2
VALLEY CITY AR FAIR       9   9 100 CALM      30.32F
CANDO          FAIR      10  10 100 SW5       30.29F WCI   2
CAVALIER APRT  CLOUDY    10   7  85 CALM      30.31F
GWINNER          N/A     14  10  85 CALM      30.34S
SHEYENNE NWR     N/A     11   7  85 CALM      29.95S
ROLLA          CLOUDY    21  19  93 NW10      30.23F WCI  10
 ***** THE ABOVE OBSERVATIONS ARE NON NWS ARE NOT QUALITY
       CONTROLLED AND MAY MIS-REPORT RAIN FOR SNOW...
$$

  *****  WEATHER ACROSS NORTHERN MINNESOTA  *****

CITY           SKY/WX    TMP DP  RH WIND       PRES   REMARKS
FLAG ISLAND    FAIR       1  -2  85 NW8       30.23S WCI -12
WARROAD        FLURRIES   0  -4  85 W3        30.26F
ROSEAU         FAIR       3   0  85 W5        30.27F WCI  -6
HALLOCK        FAIR       3   1  92 W6        30.31F WCI  -8
THF RVR FALLS  FAIR       3   0  87 NW3       30.30F
BAUDETTE       FAIR       1  -2  87 W7        30.23F WCI -12
WASKISH        FAIR       3   0  85 W5        30.26R WCI  -6
CROOKSTON      FAIR       5   1  85 CALM      30.33F
STEPHEN NDAWN    N/A      3   0  85 SW2         N/A
GREENBUSH NDAW   N/A      1  -2  85 SW3         N/A
$$
  *****  WEATHER ACROSS CENTRAL AND WEST MINNESOTA  *****

CITY           SKY/WX    TMP DP  RH WIND       PRES   REMARKS
FOSSTON        LGT SNOW   0  -6  78 CALM      30.29F
BEMIDJI        FAIR       2  -2  83 NW9       30.25S WCI -13
PARK RAPIDS    FAIR       4  -1  80 NW13      30.24S WCI -13
ELBOW LAKE     FAIR       9   4  83 NW13      30.32R WCI  -7
WADENA         FAIR       3   1  92 NW7       30.27R WCI  -9
DETROIT LAKES  LGT SNOW   7   3  85 N9        30.29F WCI  -7
MOORHEAD       FAIR       5   1  85 CALM      30.35F
FERGUS FALLS   FAIR       7   3  85 N9        30.36S WCI  -7
MORRIS MN      FAIR      10   5  79 NW15      30.31S WCI  -6
STAPLES        FAIR       3   1  92 NW10      30.25R WCI -12
$$
  *****  WEATHER ELSEWHERE ACROSS MINNESOTA  *****

CITY           SKY/WX    TMP DP  RH WIND       PRES   REMARKS
DULUTH         FLURRIES  10   3  73 NW15G22   30.10R WCI  -7
INTRNTL FALLS  FAIR       3  -2  79 NW7       30.20S WCI  -9
ELY            MOCLDY     9   0  66 NW10G23   30.10R WCI  -6
CLOQUET        FAIR      10   1  67 NW16G24   30.13R WCI  -7
WHEATON        FAIR      10   7  85 NW6       30.37S WCI   1
BRAINERD       FAIR      10   3  73 NW14      30.23R WCI  -6
HIBBING        LGT SNOW   7   1  76 NW17G32   30.15R WCI -12
ALEXANDRIA     FAIR       8   3  80 N12       30.27R WCI  -7
SAINT CLOUD    FAIR      13   7  77 NW10      30.23R WCI   0
MINNEAPOLIS    FAIR      20  10  65 N13       30.21R WCI   7
$$

  *****  WEATHER ACROSS SOUTH DAKOTA  *****

CITY           SKY/WX    TMP DP  RH WIND       PRES   REMARKS
SIOUX FALLS    FAIR      19  15  84 N12       30.34R WCI   7
BROOKINGS      MOCLDY    16  12  86 N10       30.33R WCI   3
WATERTOWN      FAIR      14  12  92 N8        30.31R WCI   3
HURON          FAIR      14  13  95 W8        30.38R WCI   3
SISSETON         N/A     12   9  87 NW8       30.34S WCI   0
ABERDEEN       FAIR      11   9  92 NW3       30.36F
MITCHELL       FAIR      18  15  88 NW7       30.40R WCI   9
PIERRE         MOCLDY    31  28  89 NW6       30.37R
MOBRIDGE       FAIR      23  19  85 CALM      30.31F
RAPID CITY     FAIR      22  19  89 CALM      30.39S
$$

  *****  SOME WEATHER IN NEARBY STATES *****

CITY           SKY/WX    TMP DP  RH WIND       PRES   REMARKS
GLASGOW MT     FAIR      27  21  78 CALM      30.31F
GREAT FALLS MT FAIR      40  13  33 SW15      30.33F
CHEYENNE WY    FAIR      28  12  51 W10       30.43R WCI  19
SCOTTSBLUFF NE FAIR      26  14  60 SW6       30.41S WCI  19
OMAHA NE       FAIR      30  19  63 N18       30.29R WCI  18
DES MOINES IA  MOCLDY    27  17  66 NW16G24   30.20R WCI  15
DAVENPORT IA   CLOUDY    33  25  72 NW20G29   30.03R WCI  21
CHICAGO IL     CLOUDY    32  26  78 NW23G35   29.86R WCI  19
EAU CLAIRE WI  FAIR      18   8  65 N12       30.11R WCI   5
LA CROSSE WI   FAIR      24  11  57 N15       30.10R WCI  11
$$

  *****  SOME NATIONAL WEATHER *****

CITY           SKY/WX    TMP DP  RH WIND       PRES   REMARKS
LA GUARDIA NY  CLOUDY    40  22  48 S5        29.96F
RALEIGH NC     FAIR      42  30  62 S9        29.94F
ATLANTA GA     FAIR      49  36  61 SW10      29.97F
NEW ORLEANS LA FAIR      53  48  83 SW9       30.15F
OKLAHOMA CITY  FAIR      49  20  31 N15G23    30.28R
ALBUQUERQUE NM FAIR      32   1  26 E5        30.42R
SALT LAKE CITY FOG       27  25  92 CALM      30.60R VSB 1/4
LOS ANGELES CA FAIR      62  41  46 CALM      30.19R
BOISE ID       CLOUDY    25  21  85 CALM      30.66R
SEATTLE WA     FAIR      41  29  62 SE6       30.40R
$$

*** WEATHER ACROSS MANITOBA...SASKATCHEWAN AND ONTARIO ***
                ***ONTARIO***

CITY           SKY/WX    TMP DP  RH WIND       PRES   REMARKS
GERALDTON      LGT SNOW  -2  -8  78 N14       29.98R DRFTSNOWWCI -21
THUNDER BAY    FLURRIES   7   0  72 NE3       30.11R
SIOUX LOOKOUT  PTCLDY    -2  -8  78 NW10G17   30.11S WCI -19
TORONTO        FLURRIES  27  23  86 E6        29.72F WCI  20
BIG TROUT LK   CLOUDY    -9 -15  77 NW12G17   30.08R WCI -29
PICKLE LAKE    NOT AVBL
DRYDEN         CLEAR     -4  -6  92 W8        30.14S WCI -19
KENORA         CLEAR      0  -4  85 NW7       30.18F WCI -13
$$
                *** MANITOBA***

CITY           SKY/WX    TMP DP  RH WIND       PRES   REMARKS
BRANDON        CLOUDY    19  18  93 SW7       30.22F WCI  10
DAUPHIN        CLOUDY    23  19  86 W9        30.19F WCI  13
ISLAND LAKE    CLEAR    -13 -17  84 W5        30.17F WCI -25
PILOT MOUND      N/A      9   7  92 SW5         N/A  WCI   0
THE PAS        CLOUDY    12   7  79 SE6       30.15F WCI   3
THOMPSON       MOCLDY   -11 -15  84 W5        30.16F WCI -23
WINNIPEG       PTCLDY     1  -2  85 SW3       30.28F
LYNN LAKE      CLOUDY    -2  -4  92 S3        30.07F
CHURCHILL      CRYSTALS -13 -18  77 NW13G18   30.08F WCI -34
GILLAM         CLEAR    -15 -20  76 W9        30.12F WCI -33
$$
                ***SASKATCHEWAN***

CITY           SKY/WX    TMP DP  RH WIND       PRES   REMARKS
ESTEVAN        PTCLDY    27  25  93 SW7       30.25F WCI  19
KINDERSLEY     PTCLDY    27  21  80 SW12      30.18F WCI  16
LLOYDMINSTER   PTCLDY    34  25  69 SW16      30.06F WCI  23
PRINCE ALBERT  CLOUDY    25  23  93 CALM      30.12F
REGINA         CLEAR     21  21 100 SW5       30.20F WCI  15
YORKTON        CLOUDY    32  30  93 W10       30.15F WCI  24
N. BATTLEFORD  PTCLDY    32  23  69 SW8       30.12F WCI  25
LA RONGE       FLURRIES  23  21  93 SE3       30.04F
SASKATOON      PTCLDY    28  25  86 S6        30.15F WCI  22
SWIFT CURRENT  CLEAR     30  19  64 SW15      30.20F WCI  19
$$
NOTE: THESE ARE AUTOMATED STATIONS WITH LIMITED QUALITY CONTROL
      "FAIR" INDICATES FEW OR NO CLOUDS BELOW 12,000 FEET WITH NO
      SIGNIFICANT WEATHER AND/OR OBSTRUCTIONS TO VISIBILITY.
      SKY/WX - SKY CONDITION AND SIGNIFICANT WEATHER.
      TMP - AIR TEMPERATURE.    DP   - DEWPOINT TEMPERATURE.
      RH  - RELATIVE HUMIDITY.  PRES - PRESSURE.
      HX  - HEAT INDEX.         WCI  - WIND CHILL INDEX.
$




USA.gov is the U.S. government's official web portal to all federal, state and local government web resources and services.